Starlink 5519

operational
NORAD ID: 57223 Int'l Des: 2023-094 Owner: SPXS Country: US Constellation: starlink
LEOCIRCULAR

Starlink 5519について

説明を読み込み中...

リアルタイム位置

3D地球を読み込み中...

次回通過

高度履歴

Altitude vs Time

uPlot chart will show altitude changes over time

軌道要素

1 57223U 23094F 25304.63617723 .00000543 00000-0 55293-4 0 9996
2 57223 43.0046 11.8560 0001140 274.3277 85.7435 15.02536614127709
Epoch: Oct 31, 2025 • Age: 26 hours

現在のステータス

高度 561.5 km
速度 7.59 km/s
衛星直下点 36.70°N, 121.43°E
打ち上げ日 Jul 7, 2023
運用期間 2.3 years
タイプ internet

技術仕様

分類 Payload
質量 305.00 kg
乾燥質量 290.00 kg
総質量 305.00 kg
長さ 0.20 m
直径 2.80 m
スパン 9.00 m
形状 Box + pan
製造者 SPXS
バスタイプ Starlink
フェーズステータス In Orbit
所有者/国 SPXS/US

大規模コンステレーション

Loading constellations...